Regional Weather Roundup
Issued by NWS

Home | Current Version | Previous Version | Graphics & Text | Print | Product List | Glossary On
Versions: 1 2 3 4 5 6 7 8 9 10 11 12 13 14 15 16 17 18 19 20 21 22 23 24 25 26 27 28 29 30 31 32 33 34 35 36 37 38 39 40 41 42 43 44 45 46 47 48 49 50
000
ASUS43 KOAX 292202
RWRNE

WEATHER ROUNDUP FOR NEBRASKA
NATIONAL WEATHER SERVICE OMAHA NE
500 PM CDT THU SEP 29 2016

NOTES: SATELLITE DATA IS BEING USED TO AUGMENT CLOUD COVER ABOVE
       12000 FEET.
       "FAIR" INDICATES FEW OR NO CLOUDS BELOW 12,000 FEET WITH NO
       SIGNIFICANT WEATHER AND/OR OBSTRUCTIONS TO VISIBILITY.

  * THESE STATIONS DO NOT REPORT WEATHER SUCH AS RAIN...SNOW OR FOG.

NEZ001>004-019>022-054>056-292300-
NEBRASKA PANHANDLE

CITY           SKY/WX    TMP DP  RH WIND       PRES   REMARKS
SCOTTSBLUFF    SUNNY     82  42  24 SE14G25   30.21F
ALLIANCE       SUNNY     77  41  27 S20G30    30.26F
CHADRON        SUNNY     81  42  25 S20       30.19F
KIMBALL        SUNNY     79  43  27 SE16G24   30.26F
SIDNEY         SUNNY     78  43  28 SE22G30   30.27F
$$

NEZ057>060-069>072-079>082-292300-
SOUTHWEST NEBRASKA

CITY           SKY/WX    TMP DP  RH WIND       PRES   REMARKS
NORTH PLATTE   SUNNY     74  41  30 SE10      30.30F
IMPERIAL       SUNNY     76  40  27 SE16G25   30.29F
LEXINGTON      SUNNY     71  38  30 SE9       30.33F
MCCOOK         SUNNY     73  43  33 SE14      30.31F
OGALLALA       SUNNY     77  39  25 SE13G21   30.28F
$$

NEZ005>010-023>029-035>040-094-292300-
NORTH CENTRAL NEBRASKA

CITY           SKY/WX    TMP DP  RH WIND       PRES   REMARKS
VALENTINE      SUNNY     74  38  27 SE17      30.28F
AINSWORTH      SUNNY     71  41  33 SE14      30.31F
BROKEN BOW     SUNNY     69  42  37 SE10      30.33F
O`NEILL        SUNNY     69  43  38 SE8       30.34F
ORD            SUNNY     68  41  37 SE10      30.32F
THEDFORD       SUNNY     74  41  30 S13       30.31F
$$

NEZ041-046>049-061>064-073>077-083>087-292300-
SOUTH CENTRAL NEBRASKA

CITY           SKY/WX    TMP DP  RH WIND       PRES   REMARKS
GRAND ISLAND   SUNNY     69  45  41 E7        30.35F
AURORA         SUNNY     68  45  43 E7        30.34F
HASTINGS       SUNNY     68  44  42 CALM      30.35F
HEBRON         SUNNY     70  45  41 E6        30.33F
HOLDREGE       SUNNY     69  39  32 S5        30.33F
KEARNEY *      SUNNY     70  41  35 SE6       30.32F
YORK           SUNNY     66  48  52 E7        30.34F
$$

NEZ011>018-030>034-042>045-292300-
NORTHEAST NEBRASKA

CITY           SKY/WX    TMP DP  RH WIND       PRES   REMARKS
NORFOLK        SUNNY     68  44  42 E6        30.34F
ALBION         SUNNY     69  42  37 E5        30.34F
BLAIR          SUNNY     70  48  45 NE7       30.34F
FREMONT        SUNNY     69  46  45 N5        30.35F
TEKAMAH        SUNNY     72  47  40 NE5       30.34F
WAYNE          SUNNY     68  49  49 E5        30.36F
$$

NEZ050>053-065>068-078-088>093-292300-
SOUTHEAST NEBRASKA

CITY           SKY/WX    TMP DP  RH WIND       PRES   REMARKS
LINCOLN        SUNNY     72  48  42 NE7       30.35F
OMAHA EPPLEY   MOSUNNY   73  47  39 VRB5      30.33F
BEATRICE       SUNNY     70  49  47 NE7       30.34S
FALLS CITY     SUNNY     71  46  40 VRB5      30.31F
NEBRASKA CITY  SUNNY     70  40  34 N9        30.33S
PLATTSMOUTH    SUNNY     71  42  35 N3        30.33F
$$

NEZ044-045-051>053-067-292300-
OMAHA AREA

CITY           SKY/WX    TMP DP  RH WIND       PRES   REMARKS
OMAHA EPPLEY   MOSUNNY   73  47  39 VRB5      30.33F
BLAIR          SUNNY     70  48  45 NE7       30.34F
FREMONT        SUNNY     69  46  45 N5        30.35F
MILLARD        MOSUNNY   70  49  47 N3        30.33F
OFFUTT AFB     MOSUNNY   71  49  45 N6        30.32F
PLATTSMOUTH    SUNNY     71  42  35 N3        30.33F
WAHOO          FAIR      70  44  39 E3        30.34F
$$



USA.gov is the U.S. government's official web portal to all federal, state and local government web resources and services.